Welcome to the New NWS' Forecast!
Most changes are behind the scenes, but click here for differences you might notice.
Latest weather observations around

Bar Harbor, Hancock County-Bar Harbor Airport (KBHB)

Using English Units (Switch to International System of Units)
Date/ Time (EDT) Wind (mph) Vis. (mi) Weather Sky Cond. Temp (°F) Rel. Humidity Wind Chill (°F) Heat Index (°F) Pressure Precip. (in)
Air Dwpt 6 hour Altimeter (inHg) Sea level (inHg) 1 hr 3 hr 6 hr
Max Min
Aug 16 06:26 S 3 9 Clear CLR 64 64     100%     29.91        
Aug 16 06:13 Calm 1.5 Fog/Mist CLR 63 63     100%     29.91        
Aug 16 05:56 Calm 0.75 Fog/Mist FEW100 63 62     97%     29.9 29.91      
Aug 16 05:54 Calm 0.75 Fog/Mist FEW100 63 63     100%     29.9        
Aug 16 05:48 Calm 1.75 Fog/Mist FEW100 63 63     100%     29.9        
Aug 16 04:56 WSW 5 10 Clear CLR 64 64     100%     29.89 29.9   0  
Aug 16 03:56 Calm 10 Mostly Clear FEW100 64 63     96%     29.88 29.89 0    
Aug 16 02:56 W 5 10 Partly Cloudy FEW070 SCT120 66 64     93%     29.87 29.88 0    
Aug 16 01:59 W 8 8 Thunderstorms and Rain SCT015 BKN045 OVC070 70 64     83%     29.89   0    
Aug 16 01:56 Calm 2 Thunderstorms and Rain and Fog/Mist SCT013 BKN028 OVC070 69 65     87%     29.87 29.88 0   0
Aug 16 01:46   1.75 Thunderstorms and Heavy Rain and Fog/Mist SCT015 BKN028 OVC055 68 66     94%     29.88   0    
Aug 16 01:44 NW 7 2.5 Thunderstorms and Heavy Rain and Fog/Mist SCT015 BKN045 OVC070 68 66     94%     29.88   0    
Aug 16 01:23 Calm 10 Mostly Cloudy BKN065 BKN075 BKN090 68 64     88%     29.86        
Aug 16 00:56 W 7 10 Partly Cloudy SCT015 SCT095 68 65     90%     29.88 29.88      
Aug 15 23:56 S 5 10 Cloudy OVC015 68 64     87%     29.88 29.88      
Aug 15 23:19 6 10 Cloudy OVC013 68 64     88%     29.89        
Aug 15 22:56 Calm 10 Cloudy OVC009 67 65     93%     29.88 29.89      
Aug 15 22:09 Calm 9 Mostly Cloudy BKN007 66 64     94%     29.88        
Aug 15 21:56 Calm 8 Mostly Cloudy SCT007 BKN075 65 65     100%     29.88 29.89      
Aug 15 20:56 SW 5 7 Mostly Cloudy SCT003 BKN085 65 64     97%     29.86 29.87      
Aug 15 20:42 SSW 5 3 Fog/Mist OVC003 64 64     100%     29.86        
Aug 15 20:39 SW 5 1.25 Fog/Mist OVC003 64 64     100%     29.86        
Aug 15 20:24 SSW 3 0.75 Fog/Mist OVC003 64 64     100%     29.85        
Aug 15 20:20 S 5 1.75 Fog/Mist OVC003 64 64     100%     29.85        
Aug 15 19:56 S 7 9 Cloudy OVC003 66 65     96%     29.83 29.84      
Aug 15 18:56 S 8 10 Cloudy OVC003 67 66     97%     29.81 29.82      
Aug 15 18:49 S 7 9 Mostly Cloudy BKN003 66 66     100%     29.81        
Aug 15 18:35 SSW 11 9 Partly Cloudy SCT003 66 66     100%     29.81        
Aug 15 17:56   10 Clear CLR 69 66     90%     29.8 29.81      
Aug 15 16:56 SSW 11 10 Clear CLR 74 68     82%   75 29.8 29.81      
Aug 15 15:56   10 Clear CLR 78 69     74%   79 29.8 29.81      
Aug 15 14:56 SSW 9 10 Clear CLR 79 69     72%   80 29.8 29.81      
Aug 15 14:10 S 8 10 Mostly Clear FEW020 77 70     78%   78 29.8        
Aug 15 13:56 S 9 10 Mostly Cloudy BKN020 78 69     74%   79 29.81 29.81      
Aug 15 12:56 WNW 3 10 Cloudy FEW009 OVC016 73 69     87%   74 29.84 29.85      
Aug 15 11:56 SSW 9 10 Cloudy OVC011 73 68     84%   74 29.83 29.84      
Aug 15 11:18 SW 7 10 Cloudy BKN008 OVC014 72 68     88%   73 29.84        
Aug 15 10:56 SSW 9 10 Cloudy OVC014 71 68     90%   72 29.83 29.84      
Aug 15 10:15 SSW 10 10 Cloudy SCT007 OVC022 72 68     88%   73 29.83        
Aug 15 09:56 SSW 10 10 Cloudy BKN005 OVC017 71 69     93%   72 29.84 29.85      
Aug 15 09:01 S 7 3 Fog/Mist OVC003 70 70     100%     29.83        
Aug 15 08:56 S 8 1.75 Fog/Mist OVC003 68 68     100%     29.83 29.84      
Aug 15 08:48 SSW 6 1.25 Fog/Mist OVC003 68 68     100%     29.83        
Aug 15 08:37 S 5 0.75 Fog/Mist OVC003 66 66     100%     29.83        
Aug 15 08:17 S 8 0.25 Fog OVC003 66 66     100%     29.84        
Aug 15 07:56 3 0.5 Fog OVC003 67 67     100%     29.84 29.85 0   0
Aug 15 07:34 SSW 7 0.25 Light Rain and Fog OVC003 66 66     100%     29.84   0    
Aug 15 07:22 SSW 8 0.5 Light Rain and Fog OVC003 66 66     100%     29.84   0    
Aug 15 07:09 SSW 7 0.75 Light Rain and Fog/Mist OVC003 66 66     100%     29.84   0    
Aug 15 06:56 SW 5 0.5 Light Rain and Fog OVC003 68 67     96%     29.83 29.84 0    
Aug 15 06:52 SSW 6 0.5 Light Rain and Fog OVC003 66 66     100%     29.83   0    
Aug 15 06:24 SSW 6 0.25 Fog OVC003 66 66     100%     29.83        
Aug 15 06:16 SSW 6 0.75 Fog/Mist OVC003 66 66     100%     29.83        
Aug 15 05:56 S 8 1.5 Fog/Mist OVC003 67 67     100%     29.82 29.83      
Aug 15 05:50 SSE 8 1 Fog/Mist OVC003 66 66     100%     29.82        
Aug 15 05:06 SSE 6 0.5 Fog OVC003 68 68     100%     29.81        
Aug 15 04:56 S 7 1 Fog/Mist OVC003 68 67     96%     29.82 29.83      
Aug 15 04:41 S 7 1.25 Fog/Mist OVC003 68 66     94%     29.81        
Aug 15 04:38 SSE 7 0.75 Fog/Mist OVC003 68 66     94%     29.81        
Aug 15 03:56 Calm 0.25 Fog OVC003 68 68     100%     29.82 29.83      
Aug 15 03:16 Calm 0.25 Fog OVC003 66 66     100%     29.84        
Aug 15 02:56 S 3 0.5 Fog OVC003 67 67     100%     29.84 29.85      
Aug 15 02:33 Calm 0.25 Fog OVC003 68 68     100%     29.84        
Aug 15 02:06 Calm 0.5 Fog OVC003 68 66     94%     29.85        
Aug 15 02:00 Calm 1 Fog/Mist OVC003 68 66     94%     29.85        
Aug 15 01:56 SE 3 2 Fog/Mist OVC003 68 67     96%     29.85 29.86      
Aug 15 01:51 SE 3 5 Fog/Mist OVC003 68 68     100%     29.85        
Aug 15 00:56 Calm 4 Fog/Mist OVC005 67 66     97%     29.86 29.87      
Aug 15 00:26 Calm 6 Fog/Mist OVC004 66 66     100%     29.87        
Aug 14 23:56 Calm 10 Cloudy BKN002 OVC013 68 67     96%     29.88 29.88      
Aug 14 23:54 Calm 10 Cloudy OVC002 68 66     94%     29.88        
Aug 14 22:56 S 3 8 Cloudy OVC004 68 67     96%     29.87 29.88      
Aug 14 21:56 S 3 10 Cloudy OVC006 68 68     100%     29.88 29.89      
Aug 14 21:09 SSE 3 8 Cloudy OVC002 68 66     94%     29.88        
Aug 14 20:56 Calm 10 Cloudy OVC004 68 67     96%     29.88 29.89      
Aug 14 20:40 Calm 10 Cloudy OVC004 68 66     94%     29.88        
Aug 14 19:56 Calm 10 Cloudy OVC008 68 66     93%     29.88 29.88      
Aug 14 18:56 SSW 6 10 Cloudy OVC008 70 69     97%     29.87 29.88      
Aug 14 18:10 SSW 6 10 Cloudy OVC008 72 68     88%   73 29.88        
Aug 14 17:56 SW 6 10 Cloudy OVC010 72 69     91%   73 29.89 29.9      
Aug 14 16:56 SE 3 10 Cloudy OVC014 72 68     87%   73 29.88 29.89      
Aug 14 15:56 ESE 6 10 Cloudy OVC014 72 68     87%   73 29.89 29.9      
Aug 14 15:38 SE 6 10 Cloudy OVC016 73 70     89%   75 29.9        
Aug 14 14:56 E 6 10 Cloudy OVC014 71 68     90%   72 29.91 29.92      
Aug 14 13:56 E 7 10 Cloudy OVC014 71 68     90%   72 29.92 29.93     0
Aug 14 13:33 E 7 10 Cloudy FEW003 OVC014 70 66     88%     29.93        
Aug 14 12:56 E 7 5 Fog/Mist OVC003 68 67     96%     29.94 29.95      
Aug 14 11:56 E 6 4 Fog/Mist OVC003 68 67     96%     29.95 29.96 0    
Aug 14 11:54 E 6 3 Fog/Mist OVC003 66 66     100%     29.95   0    
Aug 14 11:44 E 6 1.75 Fog/Mist OVC003 66 66     100%     29.95   0    
Aug 14 10:56 3 5 Light Rain and Fog/Mist OVC003 67 66     97%     29.96 29.97 0 0  
Aug 14 10:50 E 5 3 Light Rain and Fog/Mist OVC003 66 66     100%     29.96   0    
Aug 14 10:46 ENE 5 1.25 Light Rain and Fog/Mist OVC003 66 66     100%     29.96   0    
Aug 14 10:38 E 5 0.75 Fog/Mist OVC003 66 66     100%     29.96        
Aug 14 10:25 E 3 1.25 Fog/Mist OVC003 66 66     100%     29.96        
Aug 14 10:16 E 5 0.75 Fog/Mist OVC003 66 66     100%     29.96        
Aug 14 09:56 ENE 5 4 Fog/Mist OVC003 66 66     100%     29.97 29.98      
Aug 14 09:52 3 3 Fog/Mist OVC003 66 66     100%     29.97        
Aug 14 09:47 ENE 6 1.25 Fog/Mist OVC003 66 66     100%     29.97        
Aug 14 09:43 ENE 6 0.75 Fog/Mist OVC003 66 66     100%     29.97        
Aug 14 09:13 E 5 0.25 Fog OVC003 64 64     100%     29.97        
Aug 14 08:56 E 3 0.5 Fog OVC003 65 65     100%     29.97 29.98      
Notice The following observation data may not be complete
Aug 14 08:40   0.75 Fog/Mist OVC003          %              
Aug 14 08:34 E 5 1.75 Fog/Mist OVC003 64 64     100%     29.97        
Aug 14 07:43 E 5 1.25 Fog/Mist OVC003 64 64     100%     29.97        
Aug 14 07:31 Calm 0.75 Fog/Mist OVC003 64 64     100%     29.97        
Aug 14 07:26 ESE 3 1.5 Fog/Mist OVC003 64 64     100%     29.97        
Notice The following observation data may not be complete
Aug 14 07:09   1 Fog/Mist OVC003          %              
Aug 14 06:56 E 6 0.5 Fog OVC003 64 64     100%     29.97 29.98      
Aug 14 06:40 ESE 3 0.25 Fog OVC003 64 64     100%     29.97        
Aug 14 06:26 SE 3 0.5 Fog OVC003 64 64     100%     29.97        
Aug 14 05:56 Calm 0.25 Fog OVC003 64 64     100%     29.97 29.98      
Aug 14 03:56 NNE 3 0.25 Fog OVC003 65 64     97%     29.99 30      
Aug 14 03:49 N 3 0.25 Fog OVC003 64 64     100%     29.99        
Aug 14 03:09 Calm 0.5 Fog OVC003 64 64     100%     30        
Aug 14 02:56 Calm 0.75 Fog/Mist OVC003 64 64     100%     30 30.01      
Aug 14 02:45 NE 5 0.75 Fog/Mist OVC003 64 64     100%     30        
Aug 14 01:56 NNE 3 0.25 Fog OVC003 64 64     100%     30.01 30.02      
Aug 14 00:56 NNE 3 0.25 Fog OVC003 64 64     100%     30.02 30.03      
Aug 14 00:11 Calm 0.75 Fog/Mist OVC003 64 64     100%     30.03        
Aug 13 23:41 N 3 8 Cloudy OVC005 64 64     100%     30.03        
Aug 13 22:56 Calm 10 Cloudy OVC007 65 63     93%     30.03 30.04      
Aug 13 20:56 E 6 10 Cloudy OVC009 67 65     93%     30.04 30.05      
Aug 13 19:56 E 5 10 Cloudy OVC011 67 65     93%     30.04 30.05      
Aug 13 19:14 E 5 10 Cloudy BKN013 OVC047 68 64     88%     30.05        
Aug 13 18:56 5 10 Cloudy FEW013 OVC047 69 65     87%     30.05 30.06      
Aug 13 17:56 E 3 10 Cloudy BKN016 OVC036 70 65     84%     30.06 30.07      
Aug 13 17:39 SE 3 10 Cloudy FEW011 OVC016 70 66     88%     30.07        
Aug 13 15:56 E 3 10 Cloudy OVC013 69 63     81%     30.08 30.09      
Aug 13 15:39 E 3 10 Cloudy OVC013 70 63     78%     30.09        
Aug 13 14:56 ENE 5 10 Cloudy OVC015 69 62     78%     30.09 30.1      
Aug 13 14:10 E 5 10 Cloudy OVC015 68 63     83%     30.11        
Aug 13 13:56 5 10 Cloudy OVC013 68 62     81%     30.11 30.12      
Aug 13 13:35 E 5 10 Cloudy OVC013 68 63     83%     30.12        
Aug 13 12:56 ESE 5 10 Cloudy OVC015 69 61     75%     30.13 30.14      
Aug 13 12:49 E 7 10 Cloudy OVC015 70 61     73%     30.12        
Aug 13 12:27 E 5 10 Cloudy BKN013 OVC019 70 61     73%     30.13        
Aug 13 11:56 E 6 10 Cloudy OVC017 68 61     78%     30.14 30.15      
Aug 13 10:56 E 5 10 Cloudy SCT009 OVC017 66 60     81%     30.16 30.16      
Aug 13 10:53 E 6 10 Cloudy SCT009 OVC017 66 59     78%     30.15        
Aug 13 09:56 NE 3 10 Cloudy OVC012 66 59     78%     30.15 30.16      
Notice The following observation data may not be complete
Aug 13 09:29   10 Cloudy OVC010          %              
Aug 13 08:39 E 3 10 Cloudy BKN010 BKN026 OVC031 66 61     83%     30.15        
Aug 13 07:56 ESE 5 10 Cloudy OVC008 65 60     84%     30.16 30.17      
Aug 13 07:21 NE 6 10 Cloudy OVC006 64 63     94%     30.15        
Aug 13 06:56 NE 5 10 Cloudy OVC004 65 62     90%     30.15 30.16      
Aug 13 03:38 Calm 10 Cloudy BKN012 BKN026 OVC039 63 57     83%     30.15        
May 15 02:38 Calm 3 Fog/Mist SCT008 45 45     100%     29.87        
May 13 23:56 SSW 14 10 Cloudy OVC004 44 43     96% 37   30.1 30.11      
May 13 20:29 SSW 13 10 Cloudy OVC004 45 45     100% 38   30.11        
May 12 15:56 SSW 16 10 Clear CLR 53 29     39%     30.13 30.14      
May 12 04:56 Calm 10 Clear CLR 33 27     78%     30.21 30.22      
May 11 09:56 NW 9 10 Clear CLR 51 31     46%     29.88 29.89      
Jun 11 23:56 WSW 6 10 Clear   62 56     80%     29.84 29.85      
Notice The following observation data may not be complete
Jun 11 10:56   10 Clear CLR   59      %     29.86 29.87      
Jun 10 19:56 SSW 9 10 Clear CLR 59 51     75%     29.96 29.97      
Jun 09 05:56 E 6 10 Cloudy FEW050 BKN090 OVC110 51 45     79%     29.75 29.76 0    
Jun 08 08:56 SSW 10 10 Clear CLR 62 49     62%     30 30.01      
Jun 07 10:56 NNE 5 10 Clear CLR 65 41     42%     29.93 29.94      
Jun 06 03:12 NE 9 10 Mostly Cloudy BKN015 46 41     81% 42   29.99